TimeCDT,TemperatureF,Dew PointF,Humidity,Sea Level PressureIn,VisibilityMPH,Wind Direction,Wind SpeedMPH,Gust SpeedMPH,PrecipitationIn,Events,Conditions,WindDirDegrees,DateUTC
12:51 AM,30.9,19.9,64,30.16,10.0,NNW,11.5,-,N/A,,Overcast,330,2013-03-17 05:51:00
1:51 AM,30.9,19.0,61,30.16,10.0,North,10.4,-,N/A,,Overcast,350,2013-03-17 06:51:00
2:51 AM,30.0,19.0,64,30.17,10.0,North,10.4,-,N/A,,Overcast,360,2013-03-17 07:51:00
3:51 AM,30.0,18.0,61,30.16,10.0,North,8.1,-,N/A,,Overcast,360,2013-03-17 08:51:00
4:45 AM,28.4,15.8,59,30.12,10.0,North,16.1,-,N/A,,Mostly Cloudy,10,2013-03-17 09:45:00
4:51 AM,28.9,16.0,58,30.16,10.0,North,11.5,-,N/A,,Mostly Cloudy,10,2013-03-17 09:51:00
5:51 AM,28.0,15.1,58,30.19,10.0,North,11.5,-,N/A,,Overcast,10,2013-03-17 10:51:00
6:51 AM,28.0,16.0,61,30.22,10.0,NNE,10.4,-,N/A,,Mostly Cloudy,30,2013-03-17 11:51:00
7:51 AM,30.0,19.0,64,30.23,10.0,NE,9.2,-,N/A,,Mostly Cloudy,40,2013-03-17 12:51:00
8:51 AM,32.0,18.0,56,30.22,10.0,ENE,15.0,-,N/A,,Mostly Cloudy,60,2013-03-17 13:51:00
9:47 AM,32.0,19.4,60,30.20,10.0,ENE,17.3,-,N/A,,Mostly Cloudy,60,2013-03-17 14:47:00
9:51 AM,32.0,19.9,61,30.23,10.0,ENE,17.3,-,N/A,,Mostly Cloudy,60,2013-03-17 14:51:00
10:51 AM,33.1,19.9,59,30.23,10.0,ENE,15.0,20.7,N/A,,Mostly Cloudy,60,2013-03-17 15:51:00
11:51 AM,33.1,19.0,56,30.24,10.0,ENE,13.8,-,N/A,,Overcast,70,2013-03-17 16:51:00
12:06 PM,33.8,19.4,56,30.20,10.0,East,12.7,-,N/A,,Overcast,90,2013-03-17 17:06:00
12:51 PM,35.1,19.0,52,30.22,10.0,East,16.1,-,N/A,,Mostly Cloudy,90,2013-03-17 17:51:00
1:51 PM,35.6,19.4,52,30.16,10.0,ENE,16.1,-,N/A,,Mostly Cloudy,70,2013-03-17 18:51:00
2:51 PM,36.0,19.9,52,30.17,10.0,ENE,16.1,21.9,N/A,,Mostly Cloudy,70,2013-03-17 19:51:00
3:51 PM,36.0,21.0,55,30.15,10.0,ENE,16.1,-,N/A,,Mostly Cloudy,70,2013-03-17 20:51:00
4:51 PM,35.1,21.0,57,30.13,10.0,East,15.0,-,N/A,,Overcast,80,2013-03-17 21:51:00
5:51 PM,33.1,21.0,61,30.14,10.0,ENE,15.0,-,N/A,,Overcast,60,2013-03-17 22:51:00
6:51 PM,33.1,21.0,61,30.13,10.0,ENE,15.0,-,N/A,,Overcast,60,2013-03-17 23:51:00
7:51 PM,33.1,21.9,64,30.12,10.0,ENE,13.8,-,N/A,,Mostly Cloudy,60,2013-03-18 00:51:00
8:51 PM,34.0,21.9,61,30.09,10.0,East,15.0,-,N/A,,Overcast,100,2013-03-18 01:51:00
9:51 PM,33.1,21.0,61,30.08,10.0,East,20.7,27.6,N/A,,Overcast,100,2013-03-18 02:51:00
10:51 PM,32.0,19.9,61,30.07,10.0,ESE,13.8,-,N/A,,Overcast,110,2013-03-18 03:51:00
11:51 PM,30.9,21.0,67,30.04,10.0,East,16.1,23.0,N/A,,Overcast,100,2013-03-18 04:51:00